SL-16 DEB, 22339

Orbit data source: Space-Track

SL-16 DEB, 22339 is space debris in LEO originally from a launch on Fri, 25 Dec 1992 UTC launched from the Tyuratam Missile And Space Complex (TTMTR). Debris objects in space refer to the collection of defunct objects orbiting the Earth. Examples of debris include non-operational satellites, rocket bodies, and fragments generated from explosions, collisions, or faulty payload assembly.

Loading next visibility...
SL-16 DEB details
Identifier
22339, 1992-093AC
Orbit
LEO
Last TLE update13 hours ago
Origin
Flag of CISRVSN RF (CIS)
ManufacturerUnknown
MissionSpacecraft
Bus & MotorUnknown
MassUnknown
Launch date (UTC)
1992-12-25 (32 years ago)
Launch vehicleUnknown
Launch site
Tyuratam Missile And Space Complex (TTMTR)
Object type
Payload
Rocket body
Debris
Shape & HBRUnknown
Radar Cross SectionMedium (>0.1 m² and <1 m²)

Expand to show TLE details & history

TLE from 13 hours ago
0 SL-16 DEB
1 22339U 92093AC  24361.17028443  .00000660  00000-0  22899-3 0  9992
2 22339  70.8107 268.3219 0128342 269.9643  88.6783 14.34952417652883
Epoch: 2024-12-26T04:05Z
Definitive object data (Epoch: 2024-12-26T04:05:12.574Z)
Latitude0.00002°
Longitude111.86599°
Altitude776.695 km
Speed7.466 km/s
True Right ascension17h 53m 17s
True Declination0° 00' 00"
Sunlit
Object was in daylight at TLE epoch
Visualization TLE readout
Latitude22.06598°
Longitude118.70156°
Altitude814.226 km
Speed7.429 km/s
Apparent Right ascension21h 00m 01s
Apparent Declination-26° 56' 03"
Sunlit
Object is in daylight
Visualization observer readout
Local Sidereal Time16:57:09
Azimuth128.89° SE
Elevation2.511°
Doppler factor1
Orbital elements
Apogee altitude864.929 km
Perigee altitude681.367 km
Semi-major axis7,151.285 km
Eccentricity0.0128342
Inclination70.8107°
RAAN268.3219°
Arg. of periapsis269.9643°
True anomaly90.14898°
Mean anomaly88.6783°
Eccentric anomaly89.41361°
Mean motion3.58895 °/min
BSTAR0.00022899
Orbital period100.31 mins
Loading maneuver chart data...
Loading historical data...
Loading historical data...
Loading historical data...
Loading historical data...
Loading historical data...
Loading historical data...
Loading historical data...

SL-16 DEB Visibility forecast

Observer location: undefined°, undefined

Span
Click to sort rows by Start time (UTC) header in descending order
Start Az.
Max El. time (UTC)
Max El. Az.
Max El.
End time (UTC)
End Az.
10 mins2024-12-26 19:15:47.661Z192.415° SSW2024-12-26 19:20:47.661Z78.782° E43.07°2024-12-26 19:25:47.661Z27.77° NE
5 mins2024-12-26 21:01:47.661Z285.484° WNW2024-12-26 21:03:47.661Z311.301° NW17.524°2024-12-26 21:06:47.661Z346.281° N
7 mins2024-12-27 04:04:47.661Z11.324° NNE2024-12-27 04:07:47.661Z55.734° ENE25.221°2024-12-27 04:11:47.661Z109.337° ESE
8 mins2024-12-27 05:46:47.661Z315.931° NNW2024-12-27 05:50:47.661Z247.493° WSW33.776°2024-12-27 05:54:47.661Z188.803° SSW
|